Weather History for Galesburg, IL

Change the Weather History Date:

Sunday, August 25, 2013

  Actual Average Record
Temperature  
Mean Temperature 77 °F -  
Max Temperature 88 °F 82 °F 118 °F (2005)
Min Temperature 66 °F 62 °F 44 °F (1958)
Cooling Degree Days 12    
Growing Degree Days 27 (Base 50)    
Moisture  
Dew Point 68 °F    
Average Humidity 76    
Maximum Humidity 94    
Minimum Humidity 51    
Precipitation  
Precipitation 0.00 in - - ()
Sea Level Pressure  
Sea Level Pressure 30.21 in    
Wind  
Wind Speed 6 mph (South)    
Max Wind Speed 13 mph    
Max Gust Speed -    
Visibility 10 miles    
Events      
Averages and records for this station are not official NWS values.
T = Trace of Precipitation, MM = Missing Value Source: NWS Daily Summary

Daily Weather History Graph

Daily Weather History Graph

Search for Another Location

Airport:

Trip Planner

Search our weather history database for the weather conditions in past years. The results will help you decide how hot, cold, wet, or windy it might be!

Date:

Astronomy

Aug. 25, 2013 Rise Set
Actual Time 6:21 AM CDT 7:44 PM CDT
Civil Twilight 5:53 AM CDT 8:13 PM CDT
Nautical Twilight 5:18 AM CDT 8:47 PM CDT
Astronomical Twilight 4:42 AM CDT 9:23 PM CDT
Moon 10:13 PM CDT (8/25) 11:26 AM CDT (8/25)
Length of Visible Light 14h 20m
Length of Day
13h 23m
Waning Gibbous, 75% of the Moon is Illuminated
Aug 25
Waning Gibbous
Aug 28
Last Quarter
Sep 5
New
Sep 12
First Quarter
Sep 19
Full

Hourly Weather History & Observations

Time (CDT) Temp. Heat Index Dew Point Humidity Pressure Visibility Wind Dir Wind Speed Gust Speed Precip Events Conditions
12:15 AM 71.2 °F - 67.8 °F 89% 30.19 in 10.0 mi SSE 4.6 mph - N/A   Clear
12:35 AM 70.9 °F - 67.6 °F 89% 30.19 in 7.0 mi SE 4.6 mph - N/A   Clear
12:55 AM 70.7 °F - 67.5 °F 89% 30.19 in 10.0 mi SSE 3.5 mph - N/A   Clear
1:15 AM 70.3 °F - 67.3 °F 90% 30.19 in 10.0 mi SE 4.6 mph - N/A   Clear
1:35 AM 70.3 °F - 67.1 °F 89% 30.20 in 7.0 mi SE 5.8 mph - N/A   Clear
1:55 AM 69.8 °F - 67.1 °F 91% 30.19 in 10.0 mi SE 4.6 mph - N/A   Clear
2:15 AM 69.8 °F - 67.1 °F 91% 30.20 in 10.0 mi SE 3.5 mph - N/A   Clear
2:35 AM 69.1 °F - 66.6 °F 92% 30.20 in 7.0 mi SSE 4.6 mph - N/A   Clear
2:55 AM 68.5 °F - 66.2 °F 92% 30.21 in 7.0 mi SSE 5.8 mph - N/A   Clear
3:15 AM 68.0 °F - 66.2 °F 94% 30.21 in 10.0 mi SSE 4.6 mph - N/A   Clear
3:35 AM 67.6 °F - 65.7 °F 93% 30.21 in 10.0 mi SSE 4.6 mph - N/A   Clear
3:55 AM 67.5 °F - 65.5 °F 93% 30.21 in 10.0 mi SSE 5.8 mph - N/A   Clear
4:15 AM 67.1 °F - 65.3 °F 94% 30.22 in 10.0 mi SSE 4.6 mph - N/A   Clear
4:35 AM 67.1 °F - 64.8 °F 92% 30.22 in 10.0 mi SSE 4.6 mph - N/A   Clear
4:55 AM 66.9 °F - 64.6 °F 92% 30.22 in 10.0 mi SSE 3.5 mph - N/A   Clear
5:15 AM 66.2 °F - 64.4 °F 94% 30.23 in 10.0 mi South 4.6 mph - N/A   Clear
5:35 AM 66.2 °F - 64.4 °F 94% 30.23 in 10.0 mi SSE 4.6 mph - N/A   Clear
5:55 AM 66.0 °F - 64.2 °F 94% 30.24 in 10.0 mi South 4.6 mph - N/A   Clear
6:15 AM 66.2 °F - 64.0 °F 93% 30.25 in 10.0 mi South 4.6 mph - N/A   Clear
6:35 AM 66.2 °F - 64.2 °F 93% 30.25 in 10.0 mi South 5.8 mph - N/A   Clear
6:55 AM 66.6 °F - 64.4 °F 93% 30.26 in 10.0 mi South 4.6 mph - N/A   Clear
7:15 AM 67.3 °F - 64.9 °F 92% 30.26 in 10.0 mi South 5.8 mph - N/A   Clear
7:35 AM 68.0 °F - 65.5 °F 92% 30.26 in 10.0 mi South 5.8 mph - N/A   Clear
7:55 AM 69.6 °F - 66.2 °F 89% 30.26 in 10.0 mi South 8.1 mph - N/A   Clear
8:15 AM 71.1 °F - 66.6 °F 86% 30.26 in 10.0 mi South 8.1 mph - N/A   Clear
8:35 AM 73.4 °F - 67.5 °F 82% 30.26 in 10.0 mi South 8.1 mph - N/A   Clear
8:55 AM 75.2 °F - 68.0 °F 78% 30.26 in 10.0 mi SSW 6.9 mph - N/A   Clear
9:15 AM 76.5 °F - 68.5 °F 76% 30.26 in 10.0 mi SSW 9.2 mph - N/A   Clear
9:35 AM 77.5 °F - 68.9 °F 75% 30.25 in 10.0 mi SSW 10.4 mph - N/A   Clear
9:55 AM 79.2 °F - 69.1 °F 71% 30.26 in 10.0 mi SSW 12.7 mph - N/A   Clear
10:15 AM 80.6 °F 83.8 °F 69.4 °F 69% 30.26 in 10.0 mi SW 9.2 mph - N/A   Clear
10:35 AM 81.5 °F 85.1 °F 70.0 °F 68% 30.25 in 10.0 mi SSW 9.2 mph - N/A   Clear
10:55 AM 82.4 °F 86.3 °F 70.0 °F 66% 30.26 in 10.0 mi SW 11.5 mph - N/A   Clear
11:15 AM 83.3 °F 87.9 °F 70.7 °F 66% 30.25 in 10.0 mi SW 10.4 mph - N/A   Clear
11:35 AM 84.2 °F 89.3 °F 71.1 °F 65% 30.25 in 10.0 mi SSW 11.5 mph - N/A   Clear
11:55 AM 84.4 °F 89.0 °F 70.5 °F 63% 30.24 in 10.0 mi SSW 6.9 mph - N/A   Clear
12:15 PM 85.3 °F 90.4 °F 70.9 °F 62% 30.24 in 10.0 mi SSW 8.1 mph - N/A   Clear
12:35 PM 86.0 °F 90.7 °F 70.0 °F 59% 30.23 in 10.0 mi SSW 6.9 mph - N/A   Clear
12:55 PM 85.8 °F 90.4 °F 70.2 °F 59% 30.22 in 10.0 mi South 10.4 mph - N/A   Clear
1:15 PM 86.5 °F 91.4 °F 70.0 °F 58% 30.22 in 10.0 mi SSW 11.5 mph - N/A   Clear
1:35 PM 86.7 °F 91.7 °F 70.5 °F 58% 30.21 in 10.0 mi SSW 10.4 mph - N/A   Clear
1:55 PM 86.9 °F 91.3 °F 69.6 °F 56% 30.21 in 10.0 mi South 8.1 mph - N/A   Clear
2:15 PM 87.4 °F 90.5 °F 67.5 °F 51% 30.21 in 10.0 mi South 8.1 mph - N/A   Clear
2:35 PM 88.0 °F 91.8 °F 68.2 °F 52% 30.20 in 10.0 mi SSW 8.1 mph - N/A   Clear
2:55 PM 88.0 °F 92.5 °F 69.6 °F 54% 30.20 in 10.0 mi SSE 6.9 mph - N/A   Clear
3:15 PM 88.0 °F 91.4 °F 68.0 °F 51% 30.19 in 10.0 mi SSE 11.5 mph - N/A   Clear
3:35 PM 88.0 °F 91.8 °F 68.2 °F 52% 30.19 in 10.0 mi South 8.1 mph - N/A   Clear
3:55 PM 88.0 °F 91.8 °F 68.4 °F 52% 30.19 in 10.0 mi South 6.9 mph - N/A   Clear
4:15 PM 87.8 °F 91.4 °F 68.4 °F 52% 30.18 in 10.0 mi South 8.1 mph - N/A   Clear
4:35 PM 87.3 °F 91.2 °F 68.7 °F 54% 30.18 in 10.0 mi South 8.1 mph - N/A   Clear
4:55 PM 87.1 °F 90.6 °F 67.8 °F 53% 30.18 in 10.0 mi SSE 6.9 mph - N/A   Clear
5:15 PM 86.9 °F 89.9 °F 67.1 °F 52% 30.17 in 10.0 mi South 8.1 mph - N/A   Clear
5:35 PM 86.4 °F 88.7 °F 66.4 °F 51% 30.17 in 10.0 mi South 8.1 mph - N/A   Clear
5:55 PM 85.6 °F 88.8 °F 67.8 °F 55% 30.17 in 10.0 mi South 5.8 mph - N/A   Clear
6:15 PM 84.9 °F 88.2 °F 68.2 °F 57% 30.17 in 10.0 mi South 5.8 mph - N/A   Clear
6:35 PM 83.5 °F 87.4 °F 69.6 °F 63% 30.16 in 10.0 mi SSE 5.8 mph - N/A   Clear
6:55 PM 82.0 °F 85.3 °F 68.9 °F 64% 30.16 in 10.0 mi SSE 5.8 mph - N/A   Clear
7:15 PM 80.4 °F 83.4 °F 68.9 °F 68% 30.16 in 10.0 mi SSE 4.6 mph - N/A   Clear
7:35 PM 78.6 °F - 68.4 °F 71% 30.16 in 10.0 mi SSE 5.8 mph - N/A   Clear
7:55 PM 76.5 °F - 68.0 °F 75% 30.16 in 10.0 mi SSE 4.6 mph - N/A   Clear
8:15 PM 74.7 °F - 68.0 °F 80% 30.16 in 10.0 mi SSE 3.5 mph - N/A   Clear
8:35 PM 73.8 °F - 68.0 °F 82% 30.17 in 10.0 mi SSE 3.5 mph - N/A   Clear
8:55 PM 73.2 °F - 67.8 °F 83% 30.17 in 10.0 mi SSE 3.5 mph - N/A   Clear
9:15 PM 72.7 °F - 67.6 °F 84% 30.18 in 10.0 mi South 4.6 mph - N/A   Clear
9:35 PM 72.5 °F - 67.5 °F 84% 30.18 in 10.0 mi South 4.6 mph - N/A   Clear
9:55 PM 72.1 °F - 67.5 °F 85% 30.18 in 7.0 mi SSE 4.6 mph - N/A   Clear
10:15 PM 71.4 °F - 67.1 °F 86% 30.18 in 10.0 mi SSE 5.8 mph - N/A   Clear
10:35 PM 71.2 °F - 66.9 °F 86% 30.18 in 10.0 mi South 5.8 mph - N/A   Clear
10:55 PM 70.3 °F - 66.7 °F 88% 30.18 in 10.0 mi SSE 5.8 mph - N/A   Clear
11:15 PM 69.8 °F - 66.4 °F 89% 30.18 in 10.0 mi South 4.6 mph - N/A   Clear
11:35 PM 69.4 °F - 66.2 °F 89% 30.18 in 10.0 mi SSE 4.6 mph - N/A   Clear
11:55 PM 69.1 °F - 66.2 °F 91% 30.18 in 10.0 mi South 5.8 mph - N/A   Clear